GW2984 Weather Reports


Display with metric or nautical units.
time (UTC)temp
F
wind
direction
speed
MPH
gust
MPH
rain 1hr
in
rain 24hr
in
rain mn
in
humidity
%
barometer
mb
20260503173526 58 0.0 0.0 0.00 0.00 0.00 50 1016.2
20260503173104 58 0.0 0.0 0.00 0.00 0.00 50 1016.3
20260503172525 58 0.0 0.0 0.00 0.00 0.00 50 1016.4
20260503172026 57 0.0 0.0 0.00 0.00 0.00 49 1016.5
20260503171546 57 0.0 0.0 0.00 0.00 0.00 51 1016.5
20260503171027 57 0.0 0.0 0.00 0.00 0.00 51 1016.6
20260503170526 58 0.0 0.0 0.00 0.00 0.00 46 1016.6
20260503150526 54 0.0 0.0 0.00 0.00 0.00 53 1017.9
20260503131025 47 0.0 0.0 0.00 0.00 0.00 60 1018.1
20260503130526 47 0.0 0.0 0.00 0.00 0.00 59 1018.2
20260503110525 41 0.0 0.0 0.00 0.00 0.00 68 1017.8
20260503081543 39 0.0 0.0 0.00 0.00 0.00 73 1017.6
20260503081026 39 0.0 0.0 0.00 0.00 0.00 73 1017.7
20260503080526 39 0.0 0.0 0.00 0.00 0.00 73 1017.6
20260503072526 39 0.0 0.0 0.00 0.00 0.00 74 1017.6
20260503072025 39 0.0 0.0 0.00 0.00 0.00 74 1017.6
20260503071538 39 0.0 0.0 0.00 0.00 0.00 75 1017.6
20260503071026 39 0.0 0.0 0.00 0.00 0.00 75 1017.6
20260503070525 39 0.0 0.0 0.00 0.00 0.00 75 1017.6
20260503055026 39 0.0 0.0 0.00 0.00 0.00 76 1018.1
20260503054540 39 0.0 0.0 0.00 0.00 0.00 76 1018.2
20260503054026 39 0.0 0.0 0.00 0.00 0.00 76 1018.1
20260503053526 39 0.0 0.0 0.00 0.00 0.00 75 1018.3
20260503053037 39 0.0 0.0 0.00 0.00 0.00 76 1018.3
20260503052529 39 0.0 0.0 0.00 0.00 0.00 76 1018.3
20260503052025 39 0.0 0.0 0.00 0.00 0.00 76 1018.3
20260503051537 39 0.0 0.0 0.00 0.00 0.00 77 1018.3
20260503051026 39 0.0 0.0 0.00 0.00 0.00 77 1018.3
20260503050526 39 0.0 0.0 0.00 0.00 0.00 77 1018.4
20260503050037 39 0.0 0.0 0.00 0.00 0.00 78 1018.4
20260503045529 39 0.0 0.0 0.00 0.00 0.00 78 1018.4
20260503045027 39 0.0 0.0 0.00 0.00 0.00 79 1018.3
20260503044536 39 0.0 0.0 0.00 0.00 0.00 79 1018.2
20260503044026 39 0.0 0.0 0.00 0.00 0.00 79 1018.4
20260503043525 38 0.0 0.0 0.00 0.00 0.00 80 1018.4
20260503043035 39 0.0 0.0 0.00 0.00 0.00 79 1018.3
20260503042526 39 0.0 0.0 0.00 0.00 0.00 79 1018.3
20260503042030 39 0.0 0.0 0.00 0.00 0.00 78 1018.3
20260503041536 39 0.0 0.0 0.00 0.00 0.00 78 1018.3
20260503041025 39 0.0 0.0 0.00 0.00 0.00 78 1018.3
20260503040529 39 0.0 0.0 0.00 0.00 0.00 77 1018.3
20260503040037 39 0.0 0.0 0.00 0.00 0.00 77 1018.4
20260503035527 40 0.0 0.0 0.00 0.00 0.00 77 1018.4
20260503035026 40 0.0 0.0 0.00 0.00 0.00 76 1018.4
20260503034536 40 0.0 0.0 0.00 0.00 0.00 76 1018.4
20260503034025 40 0.0 0.0 0.00 0.00 0.00 75 1018.5
20260503033526 40 0.0 0.0 0.00 0.00 0.00 74 1018.4
20260503033042 40 0.0 0.0 0.00 0.00 0.00 73 1018.4
20260503032526 40 0.0 0.0 0.00 0.00 0.00 73 1018.5
20260503032026 40 0.0 0.0 0.00 0.00 0.00 72 1018.5
20260503031535 40 0.0 0.0 0.00 0.00 0.00 72 1018.5
20260503031026 41 0.0 0.0 0.00 0.00 0.00 71 1018.5
20260503030526 41 0.0 0.0 0.00 0.00 0.00 71 1018.5
20260503030039 41 0.0 0.0 0.00 0.00 0.00 70 1018.6
20260503025526 41 0.0 0.0 0.00 0.00 0.00 70 1018.7
20260503025026 41 0.0 0.0 0.00 0.00 0.00 69 1018.6
20260503024539 41 0.0 0.0 0.00 0.00 0.00 68 1018.6
20260503024026 41 0.0 0.0 0.00 0.00 0.00 68 1018.6
20260503023525 41 0.0 0.0 0.00 0.00 0.00 68 1018.6
20260503023035 41 0.0 0.0 0.00 0.00 0.00 68 1018.5
20260503022525 41 0.0 0.0 0.00 0.00 0.00 68 1018.5
20260503022025 42 0.0 0.0 0.00 0.00 0.00 68 1018.4
20260503021538 42 0.0 0.0 0.00 0.00 0.00 68 1018.4
20260503021027 42 0.0 0.0 0.00 0.00 0.00 67 1018.3
20260503020526 43 0.0 0.0 0.00 0.00 0.00 64 1018.3
20260503020035 43 0.0 0.0 0.00 0.00 0.00 65 1018.4
20260503015527 43 0.0 0.0 0.00 0.00 0.00 65 1018.3
20260503015029 43 0.0 0.0 0.00 0.00 0.00 65 1018.2
20260503014606 44 0.0 0.0 0.00 0.00 0.00 64 1018.1
20260503014026 44 0.0 0.0 0.00 0.00 0.00 63 1018.1
20260503013526 45 0.0 0.0 0.00 0.00 0.00 59 1018.1
20260503013040 46 0.0 0.0 0.00 0.00 0.00 58 1018.1
20260503012526 47 0.0 0.0 0.00 0.00 0.00 56 1018.1
20260503012025 47 0.0 0.0 0.00 0.00 0.00 56 1018.0
20260503011540 47 0.0 0.0 0.00 0.00 0.00 54 1017.9
20260503011025 48 0.0 0.0 0.00 0.00 0.00 54 1017.9
20260503010525 48 0.0 0.0 0.00 0.00 0.00 53 1017.8
20260503010047 49 0.0 0.0 0.00 0.00 0.00 54 1017.8
20260503005526 49 0.0 0.0 0.00 0.00 0.00 50 1017.8
20260503005027 50 0.0 0.0 0.00 0.00 0.00 48 1017.8
20260503004539 50 0.0 0.0 0.00 0.00 0.00 47 1017.8
20260503004026 51 0.0 0.0 0.00 0.00 0.00 46 1017.8
20260503003530 51 0.0 0.0 0.00 0.00 0.00 44 1017.8
20260503003040 51 0.0 0.0 0.00 0.00 0.00 43 1017.8
20260503002526 52 0.0 0.0 0.00 0.00 0.00 42 1017.7
20260503002026 52 0.0 0.0 0.00 0.00 0.00 40 1017.7
20260503001539 53 0.0 0.0 0.00 0.00 0.00 39 1017.6
20260503001027 53 0.0 0.0 0.00 0.00 0.00 40 1017.7
20260503000528 53 0.0 0.0 0.00 0.00 0.00 40 1017.6
20260503000035 54 0.0 0.0 0.00 0.00 0.00 40 1017.6
20260502235525 54 0.0 0.0 0.00 0.00 0.00 39 1017.5
20260502235025 54 0.0 0.0 0.00 0.00 0.00 40 1017.6
20260502234540 54 0.0 0.0 0.00 0.00 0.00 39 1017.4
20260502234027 54 0.0 0.0 0.00 0.00 0.00 40 1017.5
20260502233525 54 0.0 0.0 0.00 0.00 0.00 42 1017.5
20260502233035 54 0.0 0.0 0.00 0.00 0.00 40 1017.5
20260502232527 53 0.0 0.0 0.00 0.00 0.00 39 1017.5
20260502232027 53 0.0 0.0 0.00 0.00 0.00 41 1017.5
20260502231537 53 0.0 0.0 0.00 0.00 0.00 39 1017.5
20260502231028 53 0.0 0.0 0.00 0.00 0.00 41 1017.6
20260502230528 53 0.0 0.0 0.00 0.00 0.00 39 1017.6
20260502230042 53 0.0 0.0 0.00 0.00 0.00 42 1017.7
20260502225527 53 0.0 0.0 0.00 0.00 0.00 39 1017.6
20260502225027 54 0.0 0.0 0.00 0.00 0.00 39 1017.7
20260502224538 54 0.0 0.0 0.00 0.00 0.00 38 1017.7
20260502224028 54 0.0 0.0 0.00 0.00 0.00 40 1017.7
20260502223528 54 0.0 0.0 0.00 0.00 0.00 44 1017.7
20260502223039 54 0.0 0.0 0.00 0.00 0.00 40 1017.7
20260502222528 54 0.0 0.0 0.00 0.00 0.00 38 1017.8
20260502222028 54 0.0 0.0 0.00 0.00 0.00 41 1017.8
20260502221536 55 0.0 0.0 0.00 0.00 0.00 39 1017.8
20260502221027 55 0.0 0.0 0.00 0.00 0.00 40 1017.8
20260502220529 55 0.0 0.0 0.00 0.00 0.00 37 1017.7
20260502220043 56 0.0 0.0 0.00 0.00 0.00 41 1017.7
20260502215527 55 0.0 0.0 0.00 0.00 0.00 44 1017.7
20260502215026 54 0.0 0.0 0.00 0.00 0.00 38 1017.7
20260502214540 54 0.0 0.0 0.00 0.00 0.00 40 1017.7
20260502214031 54 0.0 0.0 0.00 0.00 0.00 39 1017.6
20260502213528 55 0.0 0.0 0.00 0.00 0.00 37 1017.7
20260502213035 56 0.0 0.0 0.00 0.00 0.00 41 1017.6
20260502212527 56 0.0 0.0 0.00 0.00 0.00 41 1017.7
20260502212027 56 0.0 0.0 0.00 0.00 0.00 38 1017.6
20260502211542 56 0.0 0.0 0.00 0.00 0.00 42 1017.6
20260502211028 56 0.0 0.0 0.00 0.00 0.00 41 1017.7
20260502210529 56 0.0 0.0 0.00 0.00 0.00 39 1017.6
20260502210041 56 0.0 0.0 0.00 0.00 0.00 41 1017.6
20260502205528 56 0.0 0.0 0.00 0.00 0.00 40 1017.7
20260502205027 55 0.0 0.0 0.00 0.00 0.00 43 1017.6
20260502204537 55 0.0 0.0 0.00 0.00 0.00 42 1017.8
20260502204028 55 0.0 0.0 0.00 0.00 0.00 42 1017.6
20260502203527 55 0.0 0.0 0.00 0.00 0.00 40 1017.7
20260502203035 55 0.0 0.0 0.00 0.00 0.00 42 1017.7
20260502202528 55 0.0 0.0 0.00 0.00 0.00 49 1017.7
20260502202028 54 0.0 0.0 0.00 0.00 0.00 44 1017.8
20260502201534 54 0.0 0.0 0.00 0.00 0.00 41 1018.0
20260502201029 54 0.0 0.0 0.00 0.00 0.00 46 1018.1
20260502200723 53 0.0 0.0 0.00 0.00 0.00 48 1018.1
20260502200525 53 0.0 0.0 0.00 0.00 0.00 48 1018.1
20260502200035 53 0.0 0.0 0.00 0.00 0.00 43 1018.2
20260502195524 53 0.0 0.0 0.00 0.00 0.00 42 1018.3
20260502195025 54 0.0 0.0 0.00 0.00 0.00 45 1018.3
20260502194543 53 0.0 0.0 0.00 0.00 0.00 44 1018.4
20260502194026 53 0.0 0.0 0.00 0.00 0.00 45 1018.4
20260502193540 53 0.0 0.0 0.00 0.00 0.00 45 1018.5
20260502193036 53 0.0 0.0 0.00 0.00 0.00 51 1018.5
20260502192528 53 0.0 0.0 0.00 0.00 0.00 48 1018.4
20260502192025 52 0.0 0.0 0.00 0.00 0.00 50 1018.5
20260502191533 52 0.0 0.0 0.00 0.00 0.00 48 1018.5
20260502191025 53 0.0 0.0 0.00 0.00 0.00 46 1018.4
20260502190526 53 0.0 0.0 0.00 0.00 0.00 45 1018.5
20260502190040 53 0.0 0.0 0.00 0.00 0.00 45 1018.6
20260502185526 53 0.0 0.0 0.00 0.00 0.00 46 1018.5
20260502185025 53 0.0 0.0 0.00 0.00 0.00 54 1018.6
20260502184548 52 0.0 0.0 0.00 0.00 0.00 47 1018.6
20260502184026 53 0.0 0.0 0.00 0.00 0.00 45 1018.6
20260502183527 52 0.0 0.0 0.00 0.00 0.00 47 1018.7
20260502183051 53 0.0 0.0 0.00 0.00 0.00 52 1018.8
20260502182527 53 0.0 0.0 0.00 0.00 0.00 53 1018.8
20260502182025 52 0.0 0.0 0.00 0.00 0.00 53 1018.8
20260502181542 52 0.0 0.0 0.00 0.00 0.00 52 1018.8
20260502181026 51 0.0 0.0 0.00 0.00 0.00 50 1018.9
20260502180526 51 0.0 0.0 0.00 0.00 0.00 52 1018.9